< < Back
Terminal Aerodrome Forecast


Current Version              Previous Versions:   1  2  3  4  5  6  7  8  9  

Terminal Aerodrome Forecast

706
FTUS42 KFFC 201100
TAFMCN
TAF
KMCN 201120Z 2012/2112 04008G18KT P6SM BKN012
      TEMPO 2012/2014 OVC009
     FM202100 04011KT P6SM BKN040
     FM210000 04004KT P6SM FEW050 SCT250=



Latest METAR

012
SAUS80 KWBC 210200 RRA
MTRMCN
METAR KMCN 210153Z AUTO 00000KT 10SM CLR 13/10 A3015 RMK AO2 SLP208
T01330100 TSNO


USA.gov is the U.S. government's official web portal to all federal, state and local government web resources and services.